星链-34850 (STARLINK-34850)

导读

STARLINK-34850是美国SpaceX星链互联网卫星项目中的一颗卫星,于2025年9月3日成功发射。星链计划旨在通过近地轨道卫星星座搭建全球高速互联网覆盖网络,弥补地面网络服务盲区,为全球偏远地区、海上及空中用户提供低延迟宽带接入服务,这颗卫星入轨后将参与星座组网运营,进一步扩充星链的服务覆盖能力与容量。

基本信息
目录编号:
65460
目录名称:
STARLINK-34850
国际标识:
2025-195C
轨道中心:
EARTH
卫星名称:
星链-34850
卫星全名:
星链-34850 (STARLINK-34850)
卫星状态:
在轨 (已飞行366 天)
发射日期:
2025-09-03 UTC
国别 :
美国 (US)
星等 :
--
轨道信息
数据来源 国际轨道数据
星历时间: 2026-09-03T12:12:18+0800
1天前
查看轨道信息
半长轴: 6840.805km
偏心率: 0.0001075
轨道倾角: 53.157°
近地点辐角 88.022°
升交点赤经 150.512°
平近点角 272.090°
近地点: 461.932km
远地点: 463.404km
周期: 93.847分钟
每日圈数: 15.34412
详细信息
固有亮度:
5
最大亮度:
2.5
卫星平台:
Starlink V1.0
覆盖范围:
全球
运营商:
太空探索技术公司
运营商所在国:
美国
制造商(研发单位):
太空探索技术公司
制造商所在国:
美国
使用方式:
暂无
卫星简介
Starlink 计划是 SpaceX 推出的全球卫星互联网项目,通过发射低轨道卫星,为全球尤其是偏远地区提供高速、低延迟的互联网服务。自 2019 年起,Starlink 已部署数千颗卫星,旨在缩小全球数字鸿沟,推动互联网普及。该项目还为军事、航空等行业提供通信支持,带来广泛经济效益。
2D轨道图
3D轨道图
轨道高度分析图
轨道倾角分析图
轨道综合分析图
查看轨道综合分析图
交会数据列表
事件ID 空间交会对象 最接近时刻(TCA) 交会距离 交会风险概率(CRP) 交会风险指数(CRI) 操作
CDM_260830-182505-926706-546021
2026-08-30T
18:25:01+0000
1.159 km
极远距离
9.944916E-6 低风险 0.55
CDM_260904-100205-229706-546021
2026-09-04T
10:02:53+0000
2.926 km
极远距离
1.189966E-6 低风险 0.37
CDM_260901-101705-315406-546021
2026-09-01T
10:17:33+0000
2.621 km
极远距离
1.032023E-6 低风险 0.35